HAIYANG-1B (31113 NORAD) Tracking and Keplerian Element Data

This shows tracking and keplerian element data for the satellite.

Feedback or suggestion? Click here.




ElementValue
Catalog31113
NameHAIYANG-1B
Epoch Orbit92937
Epoch Day34.93229095
Epoch Year2025
RAAN32.5273
Inclination98.3074
Eccentricity0.0012537
Argument of Perigee236.2043
Mean Anonmoly123.7947
Mean Motion14.30818016
Decay Rate2.74E-06
L11 31113U 07010A 25034.93229095 .00000274 00000+0 12013-3 0 9992
L22 31113 98.3074 32.5273 0012537 236.2043 123.7947 14.30818016929377



Live tracking and technical data element details for HAIYANG-1B (NORAD 31113). HAIYANG-1B can be tracked NOW for your location showing map with azimuth and elevation plus other details from your city location.







IsCatalogInMostPopularTable: catalog: 31113, numindb: 278
Update: records affected: 1



GetName: 31113 HAIYANG-1B

Hit Count: updated at: Fri, 16 May 2025 11:14:34 GMT